Voltar ao catálogo

COSMOS 2016

AtivoMilitarPO
NORAD 19921·PAYLOAD·🇷🇺 Russia

Lançado Apr 4, 1989 de Plesetsk Cosmodrome

Loading…

Próximas Passagens (próximas 24 horas)

TLE

AtualizadoSource: Space-Track

Época: Sep 14, 2026, 15:23 UTC

1 19921U 89028A   26257.64100053  .00000053  00000-0  39813-4 0  9996
2 19921  82.9605 121.4278 0038574 303.1973  65.3127 13.75350914878175

Acompanhe COSMOS 2016 em tempo real com AllMySat

Download on the App Store